Weather History for KLBT - November, 2013

Change the Weather History Date:

Friday, November 1, 2013

  Actual Average Record
Temperature  
Mean Temperature 74 °F 58 °F  
Max Temperature 81 °F 72 °F 85 °F (2004)
Min Temperature 67 °F 45 °F 31 °F (2012)
Degree Days  
Heating Degree Days 0 8  
Month to date heating degree days 0 8  
Since 1 July heating degree days 104 140  
Cooling Degree Days 9 1  
Month to date cooling degree days 9 1  
Year to date cooling degree days 1856 1895  
Growing Degree Days 24 (Base 50)    
Moisture  
Dew Point 66 °F    
Average Humidity 79    
Maximum Humidity 100    
Minimum Humidity 58    
Precipitation  
Precipitation 0.36 in 0.08 in 0.36 in (2013)
Month to date precipitation 0.36 0.08  
Year to date precipitation 38.09 37.84  
Sea Level Pressure  
Sea Level Pressure 29.81 in    
Wind  
Wind Speed 8 mph (SSW)    
Max Wind Speed 17 mph    
Max Gust Speed 25 mph    
Visibility 8 miles    
Events Rain    
T = Trace of Precipitation, MM = Missing Value Source: NWS Daily Summary

Daily Weather History Graph

Daily Weather History Graph

Search for Another Location

Airport or City:

Trip Planner

Search our weather history database for the weather conditions in past years. The results will help you decide how hot, cold, wet, or windy it might be!

Date:

Astronomy

Nov. 01, 2013 Rise Set
Actual Time 7:36 AM EDT 6:22 PM EDT
Civil Twilight 7:10 AM EDT 6:48 PM EDT
Nautical Twilight 6:40 AM EDT 7:18 PM EDT
Astronomical Twilight 6:11 AM EDT 7:47 PM EDT
Moon 5:31 AM EDT (11/1) 5:10 PM EDT (11/1)
Length of Visible Light 11h 37m
Length of Day
10h 45m
Waning Crescent, 4% of the Moon is Illuminated
Nov 1
Waning Crescent
Nov 3
New
Nov 10
First Quarter
Nov 17
Full
Nov 25
Last Quarter

Hourly Weather History & Observations

Time (EDT) Temp. Heat Index Dew Point Humidity Pressure Visibility Wind Dir Wind Speed Gust Speed Precip Events Conditions
12:06 AM 69.8 °F - 66.2 °F 88% 29.98 in 1.8 mi SW 8.1 mph - 0.05 in Rain Light Rain
12:19 AM 69.8 °F - 66.2 °F 88% 29.98 in 3.0 mi SSW 10.4 mph 20.7 mph 0.09 in Rain Light Rain
12:30 AM 69.8 °F - 66.2 °F 88% 29.97 in 4.0 mi SSW 11.5 mph 21.9 mph 0.09 in Rain Light Rain
12:37 AM 69.8 °F - 66.2 °F 88% 29.96 in 8.0 mi South 8.1 mph 19.6 mph 0.09 in Rain Light Rain
12:54 AM 69.1 °F - 66.9 °F 93% 29.96 in 10.0 mi South 8.1 mph - 0.09 in   Overcast
1:54 AM 69.1 °F - 66.9 °F 93% 29.93 in 10.0 mi SSW 6.9 mph - N/A   Mostly Cloudy
2:54 AM 68.0 °F - 66.0 °F 93% 29.90 in 10.0 mi SSW 6.9 mph - N/A   Clear
3:54 AM 69.1 °F - 66.0 °F 90% 29.87 in 10.0 mi SSW 5.8 mph - N/A   Partly Cloudy
4:54 AM 70.0 °F - 66.0 °F 87% 29.83 in 10.0 mi SSW 9.2 mph 20.7 mph N/A   Clear
5:54 AM 70.0 °F - 66.0 °F 87% 29.83 in 10.0 mi SW 9.2 mph - N/A   Clear
6:54 AM 70.0 °F - 66.0 °F 87% 29.84 in 10.0 mi SSW 5.8 mph 17.3 mph N/A   Clear
7:54 AM 70.0 °F - 66.0 °F 87% 29.85 in 10.0 mi SSW 6.9 mph - N/A   Partly Cloudy
8:54 AM 71.1 °F - 66.9 °F 87% 29.86 in 10.0 mi SSW 8.1 mph - N/A   Clear
9:54 AM 73.0 °F - 64.9 °F 76% 29.86 in 10.0 mi SW 9.2 mph - N/A   Clear
10:54 AM 73.9 °F - 64.9 °F 73% 29.86 in 10.0 mi SW 12.7 mph - N/A   Clear
11:54 AM 75.0 °F - 64.9 °F 71% 29.84 in 10.0 mi SW 12.7 mph 18.4 mph N/A   Mostly Cloudy
12:54 PM 77.0 °F - 64.9 °F 66% 29.81 in 10.0 mi SW 12.7 mph 20.7 mph N/A   Overcast
1:54 PM 78.1 °F - 64.0 °F 62% 29.77 in 10.0 mi SSW 15.0 mph 23.0 mph N/A   Overcast
2:54 PM 78.1 °F - 64.0 °F 62% 29.74 in 10.0 mi SSW 9.2 mph 20.7 mph N/A   Mostly Cloudy
3:54 PM 81.0 °F 82.5 °F 64.0 °F 56% 29.72 in 10.0 mi South 8.1 mph 16.1 mph N/A   Partly Cloudy
4:54 PM 79.0 °F - 63.0 °F 58% 29.70 in 10.0 mi SSW 10.4 mph 19.6 mph N/A   Partly Cloudy
5:54 PM 77.0 °F - 64.0 °F 64% 29.73 in 10.0 mi West 15.0 mph 19.6 mph 0.00 in   Overcast
6:12 PM 69.8 °F - 66.2 °F 88% 29.74 in 10.0 mi West 9.2 mph - 0.00 in   Overcast
6:54 PM 68.0 °F - 66.0 °F 93% 29.74 in 10.0 mi West 5.8 mph - 0.01 in   Overcast
7:35 PM 68.0 °F - 66.2 °F 94% 29.76 in 8.0 mi West 4.6 mph - 0.03 in Rain Light Rain
7:50 PM 68.0 °F - 66.2 °F 94% 29.76 in 10.0 mi WSW 3.5 mph - 0.03 in Rain Light Rain
7:54 PM 68.0 °F - 66.0 °F 93% 29.75 in 10.0 mi Calm Calm - 0.03 in Rain Light Rain
8:19 PM 66.2 °F - 66.2 °F 100% 29.76 in 7.0 mi Calm Calm - 0.02 in Rain Light Rain
8:54 PM 66.9 °F - 66.0 °F 97% 29.75 in 4.0 mi Calm Calm - 0.07 in Rain Rain
9:13 PM 66.2 °F - 66.2 °F 100% 29.75 in 3.0 mi South 4.6 mph - 0.04 in Rain Rain
9:33 PM 66.2 °F - 66.2 °F 100% 29.75 in 7.0 mi South 5.8 mph - 0.07 in Rain Light Rain
9:54 PM 66.9 °F - 66.0 °F 97% 29.73 in 4.0 mi SSE 5.8 mph - 0.09 in Rain Light Rain
10:12 PM 66.2 °F - 66.2 °F 100% 29.74 in 10.0 mi SSW 4.6 mph - 0.00 in Rain Light Rain
10:29 PM 66.2 °F - 66.2 °F 100% 29.75 in 10.0 mi South 4.6 mph - 0.01 in Rain Light Rain
10:54 PM 66.9 °F - 66.0 °F 97% 29.75 in 7.0 mi SSW 3.5 mph - 0.02 in Rain Light Rain
11:15 PM 66.2 °F - 66.2 °F 100% 29.74 in 10.0 mi SSW 6.9 mph - 0.01 in Rain Light Rain
11:54 PM 68.0 °F - 66.9 °F 96% 29.74 in 4.0 mi SW 6.9 mph - 0.06 in Rain Rain